Hourly Weather Roundup
Issued by NWS Central Illinois

Home | Current Version | Previous Version | Text Only | Print | Product List | Glossary On
Versions: 1 2 3 4 5 6 7 8 9 10 11 12 13 14 15 16 17 18 19 20 21 22 23 24 25 26 27 28 29 30 31 32 33 34 35 36 37 38 39 40 41 42 43 44 45 46 47 48 49 50
000
NZUS43 KILX 261710
HWRILX

AREA WEATHER ROUNDUP
NATIONAL WEATHER SERVICE, LINCOLN IL
1100 AM CST MON JAN 26 2015


CITY           SKY/WX    TMP DP  RH WIND       PRES   REMARKS
BLOOMINGTON    MOSUNNY   25  20  81 SW6       29.96F WCI  18
CHAMPAIGN      CLOUDY    26  21  81 W8        29.96F WCI  18
DECATUR        CLOUDY    26  24  92 W5        29.96F WCI  20
FLORA          CLOUDY    28  21  75 NW12      30.02F WCI  18
GALESBURG      SNOW      25  23  93 S8        29.94S VSB 1/2 WCI  16
JACKSONVILLE   LGT SNOW  30  27  89 S6        29.96F VSB 1   WCI  24
LACON          LGT SNOW  23  19  86 SW3       29.96R VSB 1
LAWRENCEVILLE  CLOUDY    30  24  78 W10       30.01F WCI  21
LITCHFIELD     CLOUDY    28  23  80 SW7       29.99F WCI  21
$$


CITY           SKY/WX    TMP DP  RH WIND       PRES   REMARKS
LINCOLN        CLOUDY    28  21  77 CALM      29.98F HAZE
MACOMB         LGT SNOW  28  26  96 S3        29.98R
MATTOON        CLOUDY    26  20  77 W8        29.98F WCI  18
MT CARMEL AP   CLOUDY    32  27  80 W10       30.01F WCI  24
OLNEY-NOBLE AP CLOUDY    28  23  80 CALM      30.02F
PARIS          CLOUDY    28  24  84 NE9       29.98F WCI  19
PEORIA         LGT SNOW  25  20  81 SW3       29.97R VSB 3/4
PONTIAC        CLOUDY    25  21  83 S3        29.96F
RANTOUL        CLOUDY    28  23  81 SW5       29.95F WCI  23
ROBINSON       CLOUDY    29  25  84 NW9       30.03S WCI  21
SPRINGFIELD    LGT SNOW  28  22  78 SW8       29.96F WCI  20
TAYLORVILLE    CLOUDY    28  21  74 SW6       29.97F WCI  22
$$

...REGIONAL REPORTS...


CITY           SKY/WX    TMP DP  RH WIND       PRES   REMARKS
CHICAGO O`HARE CLOUDY    24  16  71 SW7       29.92F WCI  16
KANKAKEE       PTSUNNY   26  22  82 SW3       29.96F
MOLINE         LGT SNOW  24  21  88 S5        29.89F VSB 1   WCI  18
MOUNT VERNON   CLOUDY    30  19  64 W5        30.04F WCI  25
PITTSFIELD     CLOUDY    32  27  83 S8        29.96F WCI  24
QUINCY         CLOUDY    31  27  85 S9        29.90F WCI  23
ROCKFORD       LGT SNOW  22  16  78 S7        29.92F WCI  13
$$


CITY           SKY/WX    TMP DP  RH WIND       PRES   REMARKS
BURLINGTON     CLOUDY    30  27  88 S8        29.92F WCI  22
CEDAR RAPIDS   CLOUDY    28  26  92 S14       29.80F WCI  17
DES MOINES     MOSUNNY   43  32  65 W13G22    29.81S
KIRKSVILLE     CLOUDY    35  31  85 SW13      29.87F WCI  26
OTTUMWA        PTSUNNY   36  31  82 SW9       29.82F WCI  29
ST LOUIS       CLOUDY    33  25  72 SW9       30.00F WCI  25
$$


CITY           SKY/WX    TMP DP  RH WIND       PRES   REMARKS
TERRE HAUTE    CLOUDY    28  22  78 NW6       29.98F WCI  22
EVANSVILLE     CLOUDY    32  25  75 NW6       30.04S WCI  26
INDIANAPOLIS   PTSUNNY   25  20  81 W10       29.96S WCI  15
LAFAYETTE      MOSUNNY   23  17  78 W6        29.96F WCI  16
MADISON        LGT SNOW  20  16  84 S10       29.86F FOG     WCI   9
MILWAUKEE      PTSUNNY   26  15  63 S8        29.90F WCI  18
$$




USA.gov is the U.S. government's official web portal to all federal, state and local government web resources and services.